Regional Weather Roundup
Issued by NWS Bismarck, ND

Home | Current Version | Previous Version | Text Only | Print | Product List | Glossary On
Versions: 1 2 3 4 5 6 7 8 9 10 11 12 13 14 15 16 17 18 19 20 21 22 23 24 25 26 27 28 29 30 31 32 33 34 35 36 37 38 39 40 41 42 43 44 45 46 47 48 49 50
000
ASUS43 KBIS 220502
RWRBIS

NWR BROADCAST TEXT
NATIONAL WEATHER SERVICE BISMARCK ND
1200 AM CDT FRI SEP 22 2017

NOTE: "FAIR" INDICATES FEW OR NO CLOUDS BELOW 12,000 FEET WITH NO
SIGNIFICANT WEATHER AND/OR OBSTRUCTIONS TO VISIBILITY.


CITY           SKY/WX    TMP DP  RH WIND       PRES   REMARKS
WILLISTON      CLOUDY    50  37  61 NE5       29.92R
MINOT          CLEAR     52  39  61 NW7       29.85R
MINOT AFB      CLEAR     52  39  61 N12       29.83R
BISMARCK       CLOUDY    60  48  64 N9        29.81R
DICKINSON      PTCLDY    50  38  63 N10       29.85F
GARRISON         N/A     48  41  76 N9        29.86R
HETTINGER ARPT CLOUDY    51  38  60 N14G23    29.83F
JAMESTOWN      CLEAR     61  53  75 N10       29.74R
CARRINGTON     FAIR      57  52  82 NW6       29.80R
HAZEN          FAIR      48  41  76 CALM      29.88R
LINTON         FAIR      59  48  67 N12       29.79R
RUGBY          FAIR      50  50 100 N10       29.80F
STANLEY        FAIR      48  39  71 N6G13     29.93R
TIOGA          FAIR      46  37  71 N6        29.91R
WATFORD CITY   FAIR      43  39  87 W5        29.91R
$$

CITY           SKY/WX    TMP DP  RH WIND       PRES   REMARKS
GRAND FORKS    CLEAR     66  58  75 E5        29.71S
GRAND FORKS AF CLEAR     61  56  84 NW8       29.73R
DEVILS LAKE    CLEAR     58  52  80 N14       29.80R
FARGO          CLEAR     73  68  84 SE8       29.71S
CANDO          FAIR      54  54 100 N12G17    29.83S
CAVALIER       MOCLDY    61  52  72 NW14      29.77R
GRAFTON        FAIR      63  55  77 N3        29.75R
GWINNER        FOG       61  61 100 CALM      29.72R VSB 0
LANGDON        MOCLDY    57  54  88 N10       29.82R
ROLLA          FAIR      52  52 100 N9        29.85S
WALHALLA       FAIR     N/A N/A N/A NW9       29.79R
$$

CITY           SKY/WX    TMP DP  RH WIND       PRES   REMARKS
ABERDEEN       CLEAR     70  66  87 E9        29.69S
MOBRIDGE       CLEAR     65  52  62 NE15      29.70S
BUFFALO          N/A     52  37  56 N15       29.76S
GLASGOW        CLOUDY    49  33  54 NE18      29.92S
WOLF POINT     MOCLDY    51  35  54 NE3       29.93R
GLENDIVE       CLOUDY    46  37  71 N9        29.90F
MILES CITY     CLOUDY    49  41  74 N8        29.90S
BAKER          CLOUDY    51  34  52 N14       29.88F
$$

CITY           SKY/WX    TMP DP  RH WIND       PRES   REMARKS
BILLINGS       RAIN      41  39  93 NE12      29.94S FOG
GREAT FALLS    CLOUDY    43  31  62 N13       29.97R
$$




USA.gov is the U.S. government's official web portal to all federal, state and local government web resources and services.